GW0714 Weather Reports


Display with metric or nautical units.
time (UTC)temp
F
wind
direction
speed
MPH
gust
MPH
rain 1hr
in
rain 24hr
in
rain mn
in
humidity
%
barometer
mb
20260831002030 86 148 1.0 6.0 0.00 0.00 0.00 23 1012.4
20260831001546 86 24 2.0 6.0 0.00 0.00 0.00 24 1012.5
20260831001031 85 19 1.0 8.0 0.00 0.00 0.00 25 1012.5
20260831000531 85 0 2.0 8.0 0.00 0.00 0.00 23 1012.6
20260831000059 87 138 2.0 8.0 0.00 0.00 0.00 22 1012.6
20260830235530 87 352 2.0 8.0 0.00 0.00 0.00 23 1012.6
20260830235034 87 32 2.0 5.0 0.00 0.00 0.00 24 1012.6
20260830234601 87 145 1.0 8.0 0.00 0.00 0.00 24 1012.5
20260830234030 87 0 1.0 8.0 0.00 0.00 0.00 23 1012.7
20260830233532 86 35 2.0 8.0 0.00 0.00 0.00 24 1012.7
20260830233051 87 0 1.0 6.0 0.00 0.00 0.00 25 1012.8
20260830232530 87 94 2.0 6.0 0.00 0.00 0.00 24 1012.7
20260830232032 86 9 2.0 7.0 0.00 0.00 0.00 24 1012.8
20260830231550 86 360 2.0 7.0 0.00 0.00 0.00 25 1012.8
20260830231030 86 134 2.0 8.0 0.00 0.00 0.00 26 1012.9
20260830230529 86 63 2.0 8.0 0.00 0.00 0.00 26 1012.8
20260830230047 87 332 3.0 9.0 0.00 0.00 0.00 25 1012.9
20260830225530 87 350 3.0 9.0 0.00 0.00 0.00 24 1013.0
20260830225029 85 5 2.0 7.0 0.00 0.00 0.00 26 1013.0
20260830224553 85 161 3.0 7.0 0.00 0.00 0.00 27 1013.0
20260830224031 85 117 1.0 5.0 0.00 0.00 0.00 27 1013.0
20260830223533 85 115 1.0 12.0 0.00 0.00 0.00 27 1013.0
20260830223050 85 142 3.0 12.0 0.00 0.00 0.00 27 1013.1
20260830222530 84 17 1.0 8.0 0.00 0.00 0.00 29 1013.1
20260830222030 84 128 2.0 8.0 0.00 0.00 0.00 29 1013.2
20260830221546 85 141 2.0 7.0 0.00 0.00 0.00 28 1013.3
20260830221033 85 134 2.0 9.0 0.00 0.00 0.00 28 1013.3
20260830220531 87 138 2.0 9.0 0.00 0.00 0.00 26 1013.4
20260830220046 87 352 3.0 8.0 0.00 0.00 0.00 27 1013.5
20260830215531 86 0 2.0 10.0 0.00 0.00 0.00 27 1013.5
20260830215033 86 350 1.0 10.0 0.00 0.00 0.00 28 1013.6
20260830214612 87 350 3.0 10.0 0.00 0.00 0.00 26 1013.6
20260830214029 86 352 5.0 9.0 0.00 0.00 0.00 26 1013.6
20260830213529 85 0 0.0 9.0 0.00 0.00 0.00 28 1013.7
20260830213054 86 79 1.0 9.0 0.00 0.00 0.00 28 1013.8
20260830212531 84 352 1.0 6.0 0.00 0.00 0.00 30 1013.7
20260830212031 84 193 1.0 8.0 0.00 0.00 0.00 28 1013.8
20260830211547 84 65 2.0 8.0 0.00 0.00 0.00 29 1013.9
20260830211031 84 97 2.0 8.0 0.00 0.00 0.00 30 1013.8
20260830210530 84 67 2.0 8.0 0.00 0.00 0.00 29 1013.9
20260830210053 84 5 3.0 8.0 0.00 0.00 0.00 29 1013.9
20260830205532 84 184 0.0 8.0 0.00 0.00 0.00 28 1013.9
20260830205030 84 107 1.0 8.0 0.00 0.00 0.00 30 1014.0
20260830204545 84 73 2.0 5.0 0.00 0.00 0.00 29 1013.9
20260830204031 84 186 1.0 6.0 0.00 0.00 0.00 28 1014.0
20260830203530 85 336 1.0 7.0 0.00 0.00 0.00 28 1014.0
20260830203050 85 319 3.0 7.0 0.00 0.00 0.00 27 1014.1
20260830202530 84 128 1.0 6.0 0.00 0.00 0.00 28 1014.0
20260830202029 84 39 2.0 6.0 0.00 0.00 0.00 27 1014.1
20260830201550 83 86 1.0 6.0 0.00 0.00 0.00 29 1014.2
20260830201031 82 340 1.0 9.0 0.00 0.00 0.00 31 1014.2
20260830200529 82 213 3.0 9.0 0.00 0.00 0.00 29 1014.2
20260830200100 82 110 2.0 5.0 0.00 0.00 0.00 30 1014.2
20260830195527 82 62 1.0 8.0 0.00 0.00 0.00 32 1014.2
20260830195030 83 169 1.0 8.0 0.00 0.00 0.00 30 1014.2
20260830194550 82 5 1.0 8.0 0.00 0.00 0.00 31 1014.2
20260830194030 81 84 1.0 4.0 0.00 0.00 0.00 32 1014.2
20260830193530 81 69 1.0 4.0 0.00 0.00 0.00 32 1014.3
20260830193125 81 41 1.0 8.0 0.00 0.00 0.00 32 1014.3
20260830192530 81 57 2.0 8.0 0.00 0.00 0.00 31 1014.3
20260830192027 81 128 2.0 8.0 0.00 0.00 0.00 31 1014.3
20260830191550 82 331 2.0 8.0 0.00 0.00 0.00 31 1014.5
20260830191031 80 331 1.0 7.0 0.00 0.00 0.00 33 1014.5
20260830190528 80 139 3.0 7.0 0.00 0.00 0.00 32 1014.4
20260830190050 80 111 0.0 5.0 0.00 0.00 0.00 35 1014.5
20260830185528 79 151 0.0 7.0 0.00 0.00 0.00 34 1014.5
20260830185030 79 0 2.0 7.0 0.00 0.00 0.00 34 1014.5
20260830184546 79 166 1.0 7.0 0.00 0.00 0.00 32 1014.5
20260830184029 79 346 1.0 5.0 0.00 0.00 0.00 33 1014.7
20260830183531 79 82 0.0 5.0 0.00 0.00 0.00 33 1014.6
20260830183052 79 84 1.0 4.0 0.00 0.00 0.00 32 1014.5
20260830182529 79 259 1.0 4.0 0.00 0.00 0.00 31 1014.5
20260830182030 78 352 1.0 5.0 0.00 0.00 0.00 34 1014.6
20260830181550 77 0 2.0 5.0 0.00 0.00 0.00 33 1014.6
20260830181028 78 76 1.0 3.0 0.00 0.00 0.00 34 1014.5
20260830180531 77 0 1.0 3.0 0.00 0.00 0.00 33 1014.6
20260830180052 77 0 1.0 5.0 0.00 0.00 0.00 35 1014.6
20260830175527 76 121 0.0 5.0 0.00 0.00 0.00 36 1014.6
20260830175030 76 0 1.0 5.0 0.00 0.00 0.00 35 1014.6
20260830174550 76 0 1.0 5.0 0.00 0.00 0.00 35 1014.6
20260830174029 75 96 1.0 5.0 0.00 0.00 0.00 37 1014.6
20260830173531 75 334 1.0 4.0 0.00 0.00 0.00 36 1014.6
20260830173103 75 172 1.0 3.0 0.00 0.00 0.00 37 1014.6
20260830172533 74 140 0.0 3.0 0.00 0.00 0.00 37 1014.5
20260830172028 74 0 0.0 3.0 0.00 0.00 0.00 39 1014.6
20260830171554 73 123 0.0 2.0 0.00 0.00 0.00 38 1014.6
20260830171028 73 0 0.0 2.0 0.00 0.00 0.00 38 1014.5
20260830170528 72 59 0.0 2.0 0.00 0.00 0.00 39 1014.6
20260830170047 72 0 0.0 3.0 0.00 0.00 0.00 39 1014.5
20260830165535 71 0 1.0 3.0 0.00 0.00 0.00 38 1014.5
20260830165028 71 152 0.0 3.0 0.00 0.00 0.00 38 1014.6
20260830164550 71 146 1.0 3.0 0.00 0.00 0.00 38 1014.5
20260830164028 71 147 0.0 3.0 0.00 0.00 0.00 40 1014.4
20260830163530 70 0 0.0 2.0 0.00 0.00 0.00 40 1014.4
20260830163046 70 0 0.0 2.0 0.00 0.00 0.00 40 1014.5
20260830162530 69 0 0.0 2.0 0.00 0.00 0.00 41 1014.5
20260830162030 69 139 0.0 2.0 0.00 0.00 0.00 40 1014.5
20260830161542 69 0 0.0 2.0 0.00 0.00 0.00 41 1014.5
20260830161030 68 0 0.0 2.0 0.00 0.00 0.00 40 1014.5
20260830160530 68 0 1.0 2.0 0.00 0.00 0.00 41 1014.5
20260830160052 68 0 0.0 2.0 0.00 0.00 0.00 42 1014.5
20260830155530 67 160 0.0 2.0 0.00 0.00 0.00 42 1014.5
20260830155028 66 151 0.0 2.0 0.00 0.00 0.00 44 1014.4
20260830154548 65 0 0.0 1.0 0.00 0.00 0.00 47 1014.4
20260830154029 65 0 0.0 1.0 0.00 0.00 0.00 47 1014.5
20260830153530 65 0 0.0 1.0 0.00 0.00 0.00 47 1014.5
20260830153046 65 0 0.0 1.0 0.00 0.00 0.00 47 1014.5
20260830152530 64 0 0.0 0.0 0.00 0.00 0.00 47 1014.5
20260830152033 64 0 0.0 0.0 0.00 0.00 0.00 47 1014.5
20260830151542 64 0 0.0 0.0 0.00 0.00 0.00 47 1014.4
20260830151031 64 0 0.0 0.0 0.00 0.00 0.00 47 1014.6
20260830150531 63 0 0.0 0.0 0.00 0.00 0.00 47 1014.5
20260830150055 63 0 0.0 0.0 0.00 0.00 0.00 48 1014.4
20260830145531 63 0 0.0 1.0 0.00 0.00 0.00 49 1014.5
20260830145031 63 0 0.0 1.0 0.00 0.00 0.00 47 1014.4
20260830144557 62 0 0.0 1.0 0.00 0.00 0.00 48 1014.4
20260830144030 62 0 0.0 0.0 0.00 0.00 0.00 47 1014.3
20260830143530 62 0 0.0 1.0 0.00 0.00 0.00 46 1014.3
20260830143046 62 0 0.0 1.0 0.00 0.00 0.00 46 1014.3
20260830142528 61 0 0.0 1.0 0.00 0.00 0.00 47 1014.3
20260830142032 61 0 0.0 1.0 0.00 0.00 0.00 47 1014.2
20260830141541 61 0 0.0 1.0 0.00 0.00 0.00 47 1014.1
20260830141030 61 0 0.0 1.0 0.00 0.00 0.00 47 1014.2
20260830140529 61 0 0.0 1.0 0.00 0.00 0.00 47 1014.1
20260830140050 61 0 0.0 1.0 0.00 0.00 0.00 47 1014.0
20260830135527 61 0 0.0 1.0 0.00 0.00 0.00 46 1013.9
20260830135030 62 0 0.0 1.0 0.00 0.00 0.00 46 1013.9
20260830134547 62 0 0.0 1.0 0.00 0.00 0.00 46 1013.8
20260830134029 62 0 0.0 1.0 0.00 0.00 0.00 45 1013.8
20260830133529 62 0 0.0 0.0 0.00 0.00 0.00 45 1013.8
20260830133105 62 0 0.0 1.0 0.00 0.00 0.00 45 1013.7
20260830132529 63 0 0.0 1.0 0.00 0.00 0.00 44 1013.7
20260830132029 63 0 0.0 0.0 0.00 0.00 0.00 44 1013.8
20260830131550 63 0 0.0 2.0 0.00 0.00 0.00 44 1013.6
20260830131030 63 0 0.0 2.0 0.00 0.00 0.00 44 1013.6
20260830130530 63 173 0.0 2.0 0.00 0.00 0.00 44 1013.5
20260830130045 63 0 0.0 1.0 0.00 0.00 0.00 44 1013.5
20260830125527 63 0 0.0 0.0 0.00 0.00 0.00 44 1013.5
20260830125033 63 0 0.0 0.0 0.00 0.00 0.00 44 1013.4
20260830124545 64 0 0.0 0.0 0.00 0.00 0.00 43 1013.4
20260830124031 64 0 0.0 1.0 0.00 0.00 0.00 43 1013.4
20260830123534 64 0 0.0 2.0 0.00 0.00 0.00 43 1013.3
20260830123053 64 0 0.0 2.0 0.00 0.00 0.00 44 1013.3
20260830122532 64 153 0.0 2.0 0.00 0.00 0.00 44 1013.3
20260830122030 64 0 0.0 1.0 0.00 0.00 0.00 43 1013.2
20260830121553 64 0 0.0 1.0 0.00 0.00 0.00 43 1013.2
20260830121030 64 0 0.0 1.0 0.00 0.00 0.00 43 1013.2
20260830120530 64 0 0.0 1.0 0.00 0.00 0.00 43 1013.2
20260830120135 64 246 0.0 1.0 0.00 0.00 0.00 43 1013.2
20260830120056 64 246 0.0 1.0 0.00 0.00 0.00 43 1013.2
20260830115530 64 0 0.0 1.0 0.00 0.00 0.00 42 1013.2
20260830115030 64 0 0.0 1.0 0.00 0.00 0.00 42 1013.2
20260830114609 65 0 0.0 1.0 0.00 0.00 0.00 42 1013.3
20260830114028 65 0 0.0 1.0 0.00 0.00 0.00 42 1013.3
20260830113529 65 0 0.0 1.0 0.00 0.00 0.00 42 1013.3
20260830113049 65 0 0.0 1.0 0.00 0.00 0.00 42 1013.3
20260830112532 65 0 0.0 2.0 0.00 0.00 0.00 41 1013.3
20260830112028 65 0 0.0 3.0 0.00 0.00 0.00 41 1013.3
20260830111547 65 0 0.0 3.0 0.00 0.00 0.00 41 1013.4
20260830111030 65 261 0.0 3.0 0.00 0.00 0.00 41 1013.4
20260830110533 65 0 0.0 2.0 0.00 0.00 0.00 41 1013.4
20260830110046 65 244 0.0 1.0 0.00 0.00 0.00 41 1013.4
20260830105529 66 0 0.0 1.0 0.00 0.00 0.00 41 1013.4
20260830105030 66 0 0.0 3.0 0.00 0.00 0.00 41 1013.4
20260830104543 66 0 0.0 3.0 0.00 0.00 0.00 41 1013.3
20260830104033 66 237 0.0 3.0 0.00 0.00 0.00 41 1013.4
20260830103530 66 244 0.0 2.0 0.00 0.00 0.00 40 1013.4
20260830103056 66 264 0.0 3.0 0.00 0.00 0.00 40 1013.4
20260830102528 66 0 0.0 3.0 0.00 0.00 0.00 40 1013.4
20260830102030 66 234 0.0 2.0 0.00 0.00 0.00 40 1013.4
20260830101551 66 0 0.0 2.0 0.00 0.00 0.00 40 1013.3
20260830101030 66 0 0.0 2.0 0.00 0.00 0.00 39 1013.3
20260830100529 66 0 0.0 2.0 0.00 0.00 0.00 39 1013.4
20260830100046 66 0 0.0 3.0 0.00 0.00 0.00 39 1013.4
20260830095530 66 0 0.0 3.0 0.00 0.00 0.00 39 1013.4
20260830095031 66 0 0.0 3.0 0.00 0.00 0.00 39 1013.3
20260830094551 66 247 0.0 3.0 0.00 0.00 0.00 39 1013.3
20260830094027 67 0 0.0 3.0 0.00 0.00 0.00 38 1013.3
20260830093530 67 268 0.0 2.0 0.00 0.00 0.00 39 1013.2
20260830093058 67 233 0.0 2.0 0.00 0.00 0.00 38 1013.3
20260830092530 67 252 0.0 2.0 0.00 0.00 0.00 38 1013.2
20260830092029 66 278 0.0 2.0 0.00 0.00 0.00 38 1013.2
20260830091545 66 274 0.0 2.0 0.00 0.00 0.00 38 1013.3
20260830091030 67 285 0.0 2.0 0.00 0.00 0.00 38 1013.3
20260830090533 67 276 0.0 2.0 0.00 0.00 0.00 38 1013.4
20260830090051 67 265 0.0 3.0 0.00 0.00 0.00 38 1013.3
20260830085530 67 243 0.0 3.0 0.00 0.00 0.00 38 1013.4
20260830085029 67 268 0.0 2.0 0.00 0.00 0.00 38 1013.4
20260830084550 67 0 0.0 3.0 0.00 0.00 0.00 38 1013.5
20260830084026 67 0 0.0 3.0 0.00 0.00 0.00 37 1013.4
20260830083530 67 238 0.0 3.0 0.00 0.00 0.00 38 1013.5
20260830083044 67 296 0.0 2.0 0.00 0.00 0.00 38 1013.5
20260830082527 67 0 0.0 3.0 0.00 0.00 0.00 38 1013.5
20260830082029 67 0 0.0 3.0 0.00 0.00 0.00 38 1013.4
20260830081554 67 0 0.0 3.0 0.00 0.00 0.00 38 1013.5
20260830081029 67 0 0.0 3.0 0.00 0.00 0.00 38 1013.5
20260830080528 67 0 0.0 3.0 0.00 0.00 0.00 38 1013.5
20260830080051 67 249 0.0 3.0 0.00 0.00 0.00 38 1013.7
20260830075532 67 269 0.0 3.0 0.00 0.00 0.00 38 1013.7
20260830075027 67 0 0.0 4.0 0.00 0.00 0.00 38 1013.7
20260830074550 67 259 0.0 4.0 0.00 0.00 0.00 38 1013.6
20260830074028 67 0 0.0 3.0 0.00 0.00 0.00 39 1013.6
20260830073527 67 0 0.0 2.0 0.00 0.00 0.00 38 1013.6
20260830073046 67 310 0.0 3.0 0.00 0.00 0.00 39 1013.6
20260830072530 67 0 0.0 3.0 0.00 0.00 0.00 39 1013.6
20260830072031 67 276 0.0 2.0 0.00 0.00 0.00 39 1013.7
20260830071612 67 0 0.0 2.0 0.00 0.00 0.00 39 1013.7
20260830071030 67 0 0.0 2.0 0.00 0.00 0.00 39 1013.7
20260830070529 67 0 0.0 2.0 0.00 0.00 0.00 39 1013.7
20260830070051 67 0 0.0 2.0 0.00 0.00 0.00 38 1013.7
20260830065529 68 0 0.0 1.0 0.00 0.00 0.00 37 1013.8
20260830065030 68 0 0.0 1.0 0.00 0.00 0.00 37 1013.8
20260830064550 68 0 0.0 1.0 0.00 0.00 0.00 37 1013.9
20260830064029 68 0 0.0 2.0 0.00 0.00 0.00 37 1013.9
20260830063528 68 284 0.0 2.0 0.00 0.00 0.00 37 1013.9
20260830063046 68 0 0.0 2.0 0.00 0.00 0.00 37 1013.9
20260830062530 68 254 0.0 2.0 0.00 0.00 0.00 37 1014.0
20260830062029 68 0 0.0 2.0 0.00 0.00 0.00 38 1013.9
20260830061550 68 0 0.0 2.0 0.00 0.00 0.00 38 1014.0
20260830061028 68 0 0.0 2.0 0.00 0.00 0.00 38 1014.0
20260830060531 68 282 0.0 2.0 0.00 0.00 0.00 39 1014.0
20260830060055 69 271 0.0 2.0 0.00 0.00 0.00 40 1014.1
20260830055528 69 0 0.0 2.0 0.00 0.00 0.00 39 1014.2
20260830055030 69 0 0.0 2.0 0.00 0.00 0.00 39 1014.2
20260830054543 69 0 0.0 2.0 0.00 0.00 0.00 38 1014.0
20260830054045 69 0 0.0 1.0 0.00 0.00 0.00 37 1014.1
20260830053529 69 0 0.0 3.0 0.00 0.00 0.00 37 1014.2
20260830053051 70 0 0.0 3.0 0.00 0.00 0.00 38 1014.2
20260830052531 70 0 0.0 1.0 0.00 0.00 0.00 38 1014.1
20260830052029 70 0 0.0 1.0 0.00 0.00 0.00 38 1014.1
20260830051550 70 0 0.0 1.0 0.00 0.00 0.00 38 1014.1
20260830051031 70 0 0.0 1.0 0.00 0.00 0.00 38 1014.1
20260830050532 70 0 0.0 2.0 0.00 0.00 0.00 38 1014.1
20260830050049 70 0 0.0 2.0 0.00 0.00 0.00 39 1014.1
20260830045530 71 0 0.0 2.0 0.00 0.00 0.00 39 1014.1
20260830045029 71 0 0.0 2.0 0.00 0.00 0.00 39 1014.1
20260830044638 71 290 0.0 2.0 0.00 0.00 0.00 39 1014.1
20260830044033 71 280 0.0 2.0 0.00 0.00 0.00 39 1014.0
20260830043531 72 0 0.0 2.0 0.00 0.00 0.00 40 1014.0
20260830043049 72 0 0.0 2.0 0.00 0.00 0.00 39 1014.0
20260830042531 72 0 0.0 2.0 0.00 0.00 0.00 39 1014.0
20260830042031 72 0 0.0 2.0 0.00 0.00 0.00 38 1014.1
20260830041556 72 0 0.0 2.0 0.00 0.00 0.00 37 1014.1
20260830041032 73 0 0.0 2.0 0.00 0.00 0.00 37 1013.9
20260830040531 73 0 0.0 2.0 0.00 0.00 0.00 36 1013.9
20260830040056 73 0 0.0 2.0 0.00 0.00 0.00 35 1013.8
20260830035532 73 0 0.0 2.0 0.00 0.00 0.00 35 1013.9
20260830035036 74 0 0.0 2.0 0.00 0.00 0.00 35 1013.8
20260830034543 74 0 0.0 4.0 0.00 0.00 0.00 34 1013.7
20260830034031 74 0 1.0 4.0 0.00 0.00 0.00 34 1013.6
20260830033531 74 334 1.0 4.0 0.00 0.00 0.00 34 1013.6
20260830033058 75 15 0.0 4.0 0.00 0.00 0.00 33 1013.5
20260830032531 75 22 1.0 4.0 0.00 0.00 0.00 33 1013.4
20260830032031 75 0 1.0 3.0 0.00 0.00 0.00 32 1013.3
20260830031553 75 321 0.0 2.0 0.00 0.00 0.00 32 1013.3
20260830031031 75 0 0.0 3.0 0.00 0.00 0.00 31 1013.3
20260830030532 76 0 0.0 4.0 0.00 0.00 0.00 31 1013.2
20260830030047 76 320 1.0 5.0 0.00 0.00 0.00 30 1013.1
20260830025531 76 333 2.0 5.0 0.00 0.00 0.00 29 1013.0
20260830025031 77 350 1.0 4.0 0.00 0.00 0.00 28 1013.0
20260830024616 77 336 1.0 4.0 0.00 0.00 0.00 27 1013.0
20260830024036 78 320 1.0 5.0 0.00 0.00 0.00 26 1013.1
20260830023531 78 0 1.0 5.0 0.00 0.00 0.00 26 1013.1
20260830023049 78 340 2.0 5.0 0.00 0.00 0.00 25 1013.1
20260830022531 79 360 3.0 5.0 0.00 0.00 0.00 25 1013.1
20260830022033 79 20 2.0 9.0 0.00 0.00 0.00 25 1013.1
20260830021557 79 22 3.0 9.0 0.00 0.00 0.00 24 1013.1
20260830021030 80 348 4.0 9.0 0.00 0.00 0.00 23 1013.1
20260830020535 80 348 4.0 9.0 0.00 0.00 0.00 23 1013.2
20260830020051 80 340 4.0 9.0 0.00 0.00 0.00 22 1013.2
20260830015529 81 27 4.0 9.0 0.00 0.00 0.00 22 1013.3
20260830015032 81 302 3.0 8.0 0.00 0.00 0.00 22 1013.3
20260830014555 82 344 3.0 8.0 0.00 0.00 0.00 22 1013.2
20260830014032 82 5 3.0 7.0 0.00 0.00 0.00 22 1013.3
20260830013532 82 337 2.0 9.0 0.00 0.00 0.00 22 1013.3
20260830013123 82 352 3.0 9.0 0.00 0.00 0.00 23 1013.2
20260830012532 83 344 4.0 11.0 0.00 0.00 0.00 22 1013.1
20260830012031 83 317 4.0 11.0 0.00 0.00 0.00 22 1013.0
20260830011609 83 319 2.0 6.0 0.00 0.00 0.00 22 1013.1
20260830011032 83 5 3.0 9.0 0.00 0.00 0.00 21 1013.2
20260830010532 84 334 4.0 9.0 0.00 0.00 0.00 21 1013.3
20260830010053 84 28 3.0 9.0 0.00 0.00 0.00 20 1013.3
20260830005530 84 312 3.0 9.0 0.00 0.00 0.00 18 1013.3
20260830005031 84 306 3.0 9.0 0.00 0.00 0.00 18 1013.3
20260830004547 85 29 4.0 9.0 0.00 0.00 0.00 19 1013.3
20260830004031 85 318 3.0 9.0 0.00 0.00 0.00 19 1013.3
20260830003529 85 351 1.0 12.0 0.00 0.00 0.00 18 1013.3
20260830003053 85 296 4.0 12.0 0.00 0.00 0.00 17 1013.3
20260830002533 86 337 5.0 12.0 0.00 0.00 0.00 16 1013.4